SCP
0 0 0 0 0 0 0 0 0 0 0 0 0 0 0 0 0 0 0 0 0 0 0 0 0 0 0 0 0 1 3 3 4 5 4 4 3 3 2 1 1 1 1 1
0 0 0 0 0 0 0 0 0 0 0 0 0 0 0 0 0 0 0 0 0 0 0 0 0 0 0 0 0 1 2 2 3 2 2 3 2 2 1 1 1 0 1 1
0 0 0 0 0 0 0 0 0 0 0 0 0 0 0 0 0 0 0 0 0 0 0 0 0 0 0 0 0 0 1 1 1 2 3 2 2 1 1 0 1 1 0 1
0 0 0 0 0 0 0 0 0 0 0 0 0 0 0 0 0 0 0 0 0 0 0 0 0 0 0 0 0 0 1 1 1 1 1 1 1 2 1 1 1 1 0 0
0 0 0 0 0 -0 0 0 0 0 0 0 0 0 0 0 0 0 0 0 0 0 0 0 0 0 0 0 0 0 1 1 1 1 1 1 1 1 1 1 1 0 0 0
0 0 0 0 0 0 0 0 0 0 0 0 0 0 0 0 0 0 0 0 0 0 0 0 0 0 0 0 0 1 1 1 1 1 1 1 1 1 1 0 0 0 0 0
0 0 0 0 0 0 0 0 0 0 0 0 0 0 0 0 0 0 0 0 0 0 0 0 0 0 0 0 1 1 1 1 1 1 1 1 1 1 1 1 1 1 1 0
0 0 0 0 0 0 0 0 0 0 0 0 0 0 0 0 -0 0 0 0 0 0 1 1 1 1 1 1 1 1 1 1 1 1 1 1 1 1 1 1 1 1 0 0
0 0 0 0 0 0 0 0 0 0 0 0 0 0 0 0 0 0 0 0 1 0 1 1 1 2 1 1 1 1 1 1 1 1 1 1 1 1 1 0 0 0 0 0
0 0 -0 0 0 0 0 0 0 0 0 0 0 0 0 0 0 0 0 0 0 0 1 1 1 1 1 2 1 1 1 0 0 1 1 0 0 0 0 0 0 0 0 0
0 0 0 0 0 0 0 0 0 0 0 0 0 0 0 0 0 0 0 0 0 0 1 0 0 0 0 1 1 0 0 0 0 0 0 0 0 0 0 0 0 0 0 0
0 0 0 0 0 0 0 0 0 0 0 0 0 0 0 0 0 0 0 0 0 0 0 0 1 0 0 0 0 0 0 0 0 0 0 0 0 0 0 0 0 0 0 0
0 0 0 0 0 0 0 -0 0 0 0 0 0 0 0 0 0 0 0 0 0 0 0 0 0 0 0 0 0 0 0 0 0 0 0 0 0 0 0 0 0 0 0 0
-0 0 0 0 0 0 -0 -0 -0 0 0 0 0 0 0 0 0 0 0 0 0 0 0 0 0 0 0 0 0 0 0 0 0 0 0 0 0 0 0 0 0 0 0 0
-0 0 0 0 0 0 0 0 -0 -0 -0 0 0 0 0 0 0 0 0 0 0 0 0 0 0 0 0 0 0 0 0 0 0 0 0 0 0 0 0 0 0 0 0 0
0 0 0 0 0 0 0 0 0 -0 -0 -0 0 0 0 0 0 0 0 0 0 0 0 0 0 0 0 0 0 0 0 0 0 0 0 0 0 0 0 0 0 0 0 0
0 0 0 0 0 0 0 0 0 0 -0 -0 0 0 0 0 0 0 0 0 0 0 0 0 0 0 0 0 0 0 0 0 0 0 0 0 0 0 0 0 0 0 0 0
0 0 0 0 0 0 0 0 0 -0 -0 0 0 0 -0 0 0 0 0 0 0 0 0 0 0 0 0 0 0 0 0 0 0 0 0 0 0 0 0 0 0 0 0 0
-0 0 0 0 0 0 0 0 0 -0 0 0 0 0 -0 0 0 0 0 0 0 0 0 0 0 0 0 0 0 0 0 0 0 0 0 0 0 0 0 0 0 0 0 0
0 0 0 0 0 0 0 0 0 0 0 0 0 -0 -0 -0 0 0 0 0 0 0 0 0 0 0 0 0 0 0 0 0 0 0 0 0 0 0 0 0 0 0 0 0
0 0 0 0 0 0 0 0 0 0 0 0 0 0 0 0 0 0 0 0 -0 0 0 0 0 0 0 0 0 0 0 0 0 0 0 0 0 0 0 0 0 0 0 0
0 0 0 0 0 0 -0 0 0 0 0 0 0 -0 0 -0 -0 -0 -0 -0 -0 0 0 0 0 0 0 0 0 0 0 0 0 0 0 0 0 0 0 0 0 0 0 0
0 0 0 0 0 0 0 0 -0 0 0 0 -0 0 -0 -0 0 0 0 -0 0 0 0 0 0 0 0 0 0 0 0 0 0 0 0 0 0 0 0 0 0 0 0 0
0 0 0 0 0 0 0 0 0 0 0 0 0 0 0 -0 0 0 0 0 0 0 0 0 0 0 0 0 0 0 0 0 0 0 0 0 0 0 0 0 0 0 0 0
0 0 0 0 0 0 0 0 0 0 0 0 0 0 0 0 0 0 0 0 0 0 0 0 0 0 0 0 0 0 0 0 0 0 0 0 0 0 0 0 0 0 0 0
0 0 0 0 0 0 0 0 0 0 0 0 0 0 0 0 0 0 0 0 0 0 0 0 0 0 0 0 0 0 0 0 0 0 0 0 0 0 0 0 0 0 0 0
Wind_Speed_500mb
41 23 43 44 39 25 6 30 26 13 34 21 36 36 33 41 41 44 43 46 47 58 61 54 47 40 51 53 51 58 59 53 56 62 70 76 80 75 73 64 57 55 53 52
16 46 31 27 31 34 35 32 26 16 24 15 28 32 23 26 32 42 43 47 51 54 54 51 52 53 48 52 49 57 59 56 51 54 58 64 71 75 69 65 59 54 47 45
37 11 39 36 33 39 39 41 33 25 13 25 25 44 37 28 41 32 45 49 48 54 59 61 57 55 48 42 47 49 52 53 52 54 55 56 59 61 68 64 55 49 46 45
30 43 19 41 42 36 36 31 30 31 22 31 23 22 27 23 35 34 40 48 52 53 60 64 60 50 44 43 42 49 51 52 51 51 52 52 52 55 59 60 49 41 41 45
21 19 47 36 39 38 27 25 34 32 30 23 30 21 34 15 30 30 32 36 46 57 67 62 55 43 38 40 41 50 54 53 53 53 50 45 48 48 44 41 28 31 27 25
37 18 26 42 35 36 18 21 29 25 27 29 40 28 27 32 33 30 26 26 37 45 43 46 43 36 37 36 39 48 51 52 51 50 45 33 33 39 34 24 27 22 22 28
36 43 27 24 25 32 31 27 10 14 15 33 17 25 40 16 18 12 21 36 14 17 31 35 36 36 36 39 45 50 50 49 44 36 30 26 26 27 26 28 26 22 27 29
21 18 41 38 46 25 46 35 15 21 21 21 26 23 28 25 47 27 20 13 9 13 25 30 30 35 41 50 53 51 46 41 37 34 29 26 24 24 23 25 23 22 21 21
15 20 15 36 39 39 35 39 23 7 4 14 25 33 20 9 10 8 12 14 16 19 27 34 37 41 43 52 54 51 46 42 36 32 27 24 17 12 13 13 9 10 14 17
16 17 26 36 41 42 22 36 22 8 16 20 17 32 18 17 11 10 15 14 20 30 40 46 49 55 54 53 52 50 43 37 33 29 30 28 27 23 17 13 9 5 3 4
22 19 5 21 30 39 24 21 16 19 11 16 14 13 8 9 4 11 13 23 27 36 41 54 59 59 59 58 55 51 46 43 41 36 37 34 32 28 25 24 25 20 13 11
13 3 11 31 25 40 47 34 28 17 17 11 12 10 4 1 6 15 23 32 38 46 46 46 50 57 59 62 64 64 63 60 54 49 44 42 39 34 29 22 18 14 12 13
4 9 7 9 1 14 48 42 33 20 12 23 14 6 7 9 14 25 27 36 48 52 54 47 49 55 62 70 74 69 63 60 56 50 45 40 33 25 19 15 12 9 9 9
23 13 9 8 8 24 40 48 48 39 16 17 27 7 12 17 21 26 33 37 47 48 49 50 54 54 63 63 69 64 58 53 48 42 36 32 26 20 16 12 8 10 13 16
10 2 6 10 5 26 34 45 49 50 37 23 15 21 23 22 26 30 38 46 46 47 68 43 58 64 66 63 59 54 49 44 36 32 27 25 19 12 9 8 13 17 20 23
25 3 8 6 13 19 28 35 45 48 45 32 29 15 18 29 40 39 41 45 44 46 51 68 66 70 63 55 50 43 38 34 24 21 17 15 11 11 13 16 20 25 29 32
10 5 3 4 22 12 14 39 39 37 43 38 27 16 38 28 35 55 45 45 41 35 43 44 55 53 44 42 36 31 29 26 20 15 14 11 9 10 14 20 26 32 35 37
11 5 2 4 9 13 6 20 37 42 36 25 9 43 52 44 47 52 71 61 49 23 41 56 59 55 47 43 35 28 23 18 17 14 9 6 8 14 22 30 37 42 46 50
18 5 5 5 9 4 11 11 23 38 18 5 18 42 48 47 43 27 33 57 58 47 25 45 49 48 41 36 31 24 20 16 13 7 4 9 16 24 33 40 45 51 57 60
6 12 1 6 6 7 6 8 9 24 20 15 26 39 47 57 18 11 39 55 62 58 52 46 39 41 36 32 27 22 15 9 2 6 13 22 30 39 47 53 57 59 59 57
1 4 7 5 5 6 18 20 11 9 8 32 39 47 42 16 21 43 53 54 61 66 57 43 39 39 33 29 22 14 7 3 7 18 28 37 46 51 55 56 53 47 40 35
1 3 3 3 5 7 32 17 5 6 26 43 47 52 44 48 62 59 58 60 65 60 54 45 39 34 31 25 14 6 3 11 22 30 39 46 50 50 47 39 33 29 26 23
3 6 5 9 6 6 17 13 12 32 48 48 57 53 74 67 56 74 71 64 58 51 46 40 32 27 20 12 6 6 15 24 33 41 48 47 43 36 27 22 19 19 20 21
7 8 7 6 15 22 29 34 39 47 50 51 71 79 74 65 62 64 64 58 52 45 41 33 25 17 9 5 12 19 27 36 43 45 39 34 25 17 14 16 16 17 17 18
8 9 12 16 17 31 43 38 37 53 65 72 66 66 64 69 60 60 51 41 36 31 23 16 8 6 11 18 25 32 37 38 34 29 23 16 12 11 12 12 13 14 16 15
19 8 5 9 18 33 17 25 35 57 50 48 53 47 39 39 44 41 39 31 24 17 11 7 8 14 22 28 30 31 30 26 20 11 8 10 10 9 8 9 9 7 7 11
Wind_Direction_500mb
188 201 212 206 214 224 214 231 238 236 239 241 239 252 248 258 244 241 247 251 250 249 239 240 238 244 240 233 229 228 225 228 234 239 237 235 235 233 234 236 243 241 243 244
182 225 218 212 206 214 234 245 235 269 266 254 268 267 256 251 257 235 234 235 243 248 247 240 244 249 250 237 232 215 217 222 227 239 242 238 237 233 233 236 240 241 242 243
218 219 201 198 202 211 225 234 239 240 261 267 279 275 260 244 253 240 235 235 236 240 244 247 247 249 243 230 212 210 215 217 220 231 236 235 236 234 233 235 242 243 244 247
238 240 227 211 218 205 221 221 224 231 236 247 232 269 249 251 249 250 239 235 236 241 246 240 243 238 227 225 216 213 214 215 217 223 233 234 232 234 232 235 240 249 256 260
218 198 205 204 211 206 231 205 208 216 223 241 223 251 264 243 249 248 259 246 242 243 244 232 233 227 221 221 221 213 208 211 216 221 229 232 230 233 231 232 243 254 267 259
252 233 214 225 219 207 199 232 223 230 230 240 233 231 265 240 246 252 260 276 257 242 224 215 211 213 218 215 205 195 198 202 209 218 226 232 233 231 233 234 245 249 258 253
234 237 230 216 216 212 210 204 175 201 209 235 198 218 242 240 236 227 296 303 288 213 185 183 188 184 188 182 176 179 187 193 201 210 220 218 212 209 215 229 239 246 251 250
224 234 215 214 227 210 203 197 196 205 206 220 205 232 236 228 256 272 268 267 179 163 156 155 156 158 159 162 163 167 172 179 187 194 190 188 192 200 212 230 241 245 247 256
220 236 235 218 203 199 191 209 203 292 241 218 213 244 262 211 239 169 144 152 127 125 136 128 129 138 142 148 152 155 158 158 158 162 164 176 182 186 198 213 216 243 266 271
226 255 211 208 210 203 193 184 190 188 215 219 216 234 236 192 196 147 138 136 119 117 123 129 133 134 136 137 138 137 133 132 136 137 137 142 143 142 145 153 167 191 230 292
237 218 267 185 194 186 193 186 189 180 239 226 235 216 336 259 156 146 140 117 104 109 118 129 132 130 133 132 131 128 127 124 123 126 129 133 129 127 128 126 115 99 84 59
236 294 203 207 206 202 199 179 189 197 191 232 274 238 9 39 141 149 121 114 110 108 108 113 116 119 120 120 119 119 119 117 114 116 121 120 119 119 116 109 96 85 62 43
302 183 170 154 91 181 199 199 196 201 170 213 216 167 123 131 137 115 115 123 114 112 111 111 109 111 116 117 119 119 119 118 120 123 124 124 122 123 116 101 81 52 28 360
251 227 241 164 174 166 189 200 199 199 200 186 229 188 184 164 149 121 124 118 114 113 113 115 113 112 112 113 117 117 116 116 117 117 117 114 109 102 92 70 36 359 339 325
151 195 229 246 288 187 185 195 198 206 205 211 202 216 190 173 150 135 124 120 117 119 122 114 119 114 113 113 111 110 109 108 107 107 108 104 98 85 59 11 350 339 328 317
329 54 193 251 247 194 196 203 206 205 201 213 227 205 149 155 132 129 131 127 126 128 131 133 118 114 111 110 110 113 111 105 103 100 95 84 62 34 11 358 346 338 333 329
273 302 335 215 201 196 222 192 201 200 201 208 207 173 149 157 154 137 135 131 125 126 137 130 128 129 130 126 122 117 114 103 95 85 81 72 54 20 353 339 331 325 323 323
253 227 198 258 115 196 36 218 202 201 205 206 132 157 169 150 136 143 144 138 124 126 137 132 125 130 132 133 135 132 120 118 112 115 113 71 1 334 329 327 324 320 317 314
213 202 204 235 172 62 88 141 174 180 188 246 177 169 152 147 123 130 159 148 143 148 164 147 137 136 144 139 139 135 137 132 125 125 24 337 327 323 321 318 315 311 307 304
325 148 185 212 155 173 27 15 339 162 188 172 149 161 156 157 152 140 151 142 138 153 161 141 151 141 150 145 146 141 132 142 143 358 336 327 326 322 319 316 311 308 307 308
98 127 204 200 99 93 1 317 299 144 138 158 150 135 156 173 109 136 149 150 156 162 159 160 153 153 149 151 154 152 157 236 329 339 331 326 322 315 313 313 313 316 319 321
250 219 102 103 108 86 357 337 144 82 127 136 134 134 118 120 124 139 146 148 148 145 147 149 149 152 149 151 163 178 269 331 330 321 317 318 314 316 318 321 330 335 337 344
10 14 71 33 77 351 32 28 72 119 117 120 117 124 130 120 119 131 128 129 135 140 143 145 148 148 153 160 178 281 311 315 315 316 318 317 320 324 329 342 343 351 356 360
79 16 71 138 33 53 56 63 77 92 99 110 125 129 130 127 128 125 129 131 133 137 138 140 144 153 176 258 296 308 313 314 317 319 316 322 331 344 350 350 359 1 1 4
357 346 80 89 119 84 45 52 75 89 104 110 112 115 116 122 125 128 128 131 129 133 139 148 169 242 286 301 308 311 311 315 316 314 323 339 347 347 352 353 5 355 347 356
350 24 42 85 73 98 68 66 96 102 98 106 123 111 112 129 125 126 126 131 137 148 171 208 266 290 295 298 304 308 311 313 313 330 357 355 350 351 360 1 355 353 337 340
Wind_Speed_850mb
41 23 43 44 39 25 6 30 26 13 34 21 36 36 33 41 41 44 43 46 47 58 61 54 47 40 51 53 51 58 59 53 56 62 70 76 80 75 73 64 57 55 53 52
16 46 31 27 31 34 35 32 26 16 24 15 28 32 23 26 32 42 43 47 51 54 54 51 52 53 48 52 49 57 59 56 51 54 58 64 71 75 69 65 59 54 47 45
37 11 39 36 33 39 39 41 33 25 13 25 25 44 37 28 41 32 45 49 48 54 59 61 57 55 48 42 47 49 52 53 52 54 55 56 59 61 68 64 55 49 46 45
30 43 19 41 42 36 36 31 30 31 22 31 23 22 27 23 35 34 40 48 52 53 60 64 60 50 44 43 42 49 51 52 51 51 52 52 52 55 59 60 49 41 41 45
21 19 47 36 39 38 27 25 34 32 30 23 30 21 34 15 30 30 32 36 46 57 67 62 55 43 38 40 41 50 54 53 53 53 50 45 48 48 44 41 28 31 27 25
37 18 26 42 35 36 18 21 29 25 27 29 40 28 27 32 33 30 26 26 37 45 43 46 43 36 37 36 39 48 51 52 51 50 45 33 33 39 34 24 27 22 22 28
36 43 27 24 25 32 31 27 10 14 15 33 17 25 40 16 18 12 21 36 14 17 31 35 36 36 36 39 45 50 50 49 44 36 30 26 26 27 26 28 26 22 27 29
21 18 41 38 46 25 46 35 15 21 21 21 26 23 28 25 47 27 20 13 9 13 25 30 30 35 41 50 53 51 46 41 37 34 29 26 24 24 23 25 23 22 21 21
15 20 15 36 39 39 35 39 23 7 4 14 25 33 20 9 10 8 12 14 16 19 27 34 37 41 43 52 54 51 46 42 36 32 27 24 17 12 13 13 9 10 14 17
16 17 26 36 41 42 22 36 22 8 16 20 17 32 18 17 11 10 15 14 20 30 40 46 49 55 54 53 52 50 43 37 33 29 30 28 27 23 17 13 9 5 3 4
22 19 5 21 30 39 24 21 16 19 11 16 14 13 8 9 4 11 13 23 27 36 41 54 59 59 59 58 55 51 46 43 41 36 37 34 32 28 25 24 25 20 13 11
13 3 11 31 25 40 47 34 28 17 17 11 12 10 4 1 6 15 23 32 38 46 46 46 50 57 59 62 64 64 63 60 54 49 44 42 39 34 29 22 18 14 12 13
4 9 7 9 1 14 48 42 33 20 12 23 14 6 7 9 14 25 27 36 48 52 54 47 49 55 62 70 74 69 63 60 56 50 45 40 33 25 19 15 12 9 9 9
23 13 9 8 8 24 40 48 48 39 16 17 27 7 12 17 21 26 33 37 47 48 49 50 54 54 63 63 69 64 58 53 48 42 36 32 26 20 16 12 8 10 13 16
10 2 6 10 5 26 34 45 49 50 37 23 15 21 23 22 26 30 38 46 46 47 68 43 58 64 66 63 59 54 49 44 36 32 27 25 19 12 9 8 13 17 20 23
25 3 8 6 13 19 28 35 45 48 45 32 29 15 18 29 40 39 41 45 44 46 51 68 66 70 63 55 50 43 38 34 24 21 17 15 11 11 13 16 20 25 29 32
10 5 3 4 22 12 14 39 39 37 43 38 27 16 38 28 35 55 45 45 41 35 43 44 55 53 44 42 36 31 29 26 20 15 14 11 9 10 14 20 26 32 35 37
11 5 2 4 9 13 6 20 37 42 36 25 9 43 52 44 47 52 71 61 49 23 41 56 59 55 47 43 35 28 23 18 17 14 9 6 8 14 22 30 37 42 46 50
18 5 5 5 9 4 11 11 23 38 18 5 18 42 48 47 43 27 33 57 58 47 25 45 49 48 41 36 31 24 20 16 13 7 4 9 16 24 33 40 45 51 57 60
6 12 1 6 6 7 6 8 9 24 20 15 26 39 47 57 18 11 39 55 62 58 52 46 39 41 36 32 27 22 15 9 2 6 13 22 30 39 47 53 57 59 59 57
1 4 7 5 5 6 18 20 11 9 8 32 39 47 42 16 21 43 53 54 61 66 57 43 39 39 33 29 22 14 7 3 7 18 28 37 46 51 55 56 53 47 40 35
1 3 3 3 5 7 32 17 5 6 26 43 47 52 44 48 62 59 58 60 65 60 54 45 39 34 31 25 14 6 3 11 22 30 39 46 50 50 47 39 33 29 26 23
3 6 5 9 6 6 17 13 12 32 48 48 57 53 74 67 56 74 71 64 58 51 46 40 32 27 20 12 6 6 15 24 33 41 48 47 43 36 27 22 19 19 20 21
7 8 7 6 15 22 29 34 39 47 50 51 71 79 74 65 62 64 64 58 52 45 41 33 25 17 9 5 12 19 27 36 43 45 39 34 25 17 14 16 16 17 17 18
8 9 12 16 17 31 43 38 37 53 65 72 66 66 64 69 60 60 51 41 36 31 23 16 8 6 11 18 25 32 37 38 34 29 23 16 12 11 12 12 13 14 16 15
19 8 5 9 18 33 17 25 35 57 50 48 53 47 39 39 44 41 39 31 24 17 11 7 8 14 22 28 30 31 30 26 20 11 8 10 10 9 8 9 9 7 7 11
Wind_Direction_850mb
188 201 212 206 214 224 214 231 238 236 239 241 239 252 248 258 244 241 247 251 250 249 239 240 238 244 240 233 229 228 225 228 234 239 237 235 235 233 234 236 243 241 243 244
182 225 218 212 206 214 234 245 235 269 266 254 268 267 256 251 257 235 234 235 243 248 247 240 244 249 250 237 232 215 217 222 227 239 242 238 237 233 233 236 240 241 242 243
218 219 201 198 202 211 225 234 239 240 261 267 279 275 260 244 253 240 235 235 236 240 244 247 247 249 243 230 212 210 215 217 220 231 236 235 236 234 233 235 242 243 244 247
238 240 227 211 218 205 221 221 224 231 236 247 232 269 249 251 249 250 239 235 236 241 246 240 243 238 227 225 216 213 214 215 217 223 233 234 232 234 232 235 240 249 256 260
218 198 205 204 211 206 231 205 208 216 223 241 223 251 264 243 249 248 259 246 242 243 244 232 233 227 221 221 221 213 208 211 216 221 229 232 230 233 231 232 243 254 267 259
252 233 214 225 219 207 199 232 223 230 230 240 233 231 265 240 246 252 260 276 257 242 224 215 211 213 218 215 205 195 198 202 209 218 226 232 233 231 233 234 245 249 258 253
234 237 230 216 216 212 210 204 175 201 209 235 198 218 242 240 236 227 296 303 288 213 185 183 188 184 188 182 176 179 187 193 201 210 220 218 212 209 215 229 239 246 251 250
224 234 215 214 227 210 203 197 196 205 206 220 205 232 236 228 256 272 268 267 179 163 156 155 156 158 159 162 163 167 172 179 187 194 190 188 192 200 212 230 241 245 247 256
220 236 235 218 203 199 191 209 203 292 241 218 213 244 262 211 239 169 144 152 127 125 136 128 129 138 142 148 152 155 158 158 158 162 164 176 182 186 198 213 216 243 266 271
226 255 211 208 210 203 193 184 190 188 215 219 216 234 236 192 196 147 138 136 119 117 123 129 133 134 136 137 138 137 133 132 136 137 137 142 143 142 145 153 167 191 230 292
237 218 267 185 194 186 193 186 189 180 239 226 235 216 336 259 156 146 140 117 104 109 118 129 132 130 133 132 131 128 127 124 123 126 129 133 129 127 128 126 115 99 84 59
236 294 203 207 206 202 199 179 189 197 191 232 274 238 9 39 141 149 121 114 110 108 108 113 116 119 120 120 119 119 119 117 114 116 121 120 119 119 116 109 96 85 62 43
302 183 170 154 91 181 199 199 196 201 170 213 216 167 123 131 137 115 115 123 114 112 111 111 109 111 116 117 119 119 119 118 120 123 124 124 122 123 116 101 81 52 28 360
251 227 241 164 174 166 189 200 199 199 200 186 229 188 184 164 149 121 124 118 114 113 113 115 113 112 112 113 117 117 116 116 117 117 117 114 109 102 92 70 36 359 339 325
151 195 229 246 288 187 185 195 198 206 205 211 202 216 190 173 150 135 124 120 117 119 122 114 119 114 113 113 111 110 109 108 107 107 108 104 98 85 59 11 350 339 328 317
329 54 193 251 247 194 196 203 206 205 201 213 227 205 149 155 132 129 131 127 126 128 131 133 118 114 111 110 110 113 111 105 103 100 95 84 62 34 11 358 346 338 333 329
273 302 335 215 201 196 222 192 201 200 201 208 207 173 149 157 154 137 135 131 125 126 137 130 128 129 130 126 122 117 114 103 95 85 81 72 54 20 353 339 331 325 323 323
253 227 198 258 115 196 36 218 202 201 205 206 132 157 169 150 136 143 144 138 124 126 137 132 125 130 132 133 135 132 120 118 112 115 113 71 1 334 329 327 324 320 317 314
213 202 204 235 172 62 88 141 174 180 188 246 177 169 152 147 123 130 159 148 143 148 164 147 137 136 144 139 139 135 137 132 125 125 24 337 327 323 321 318 315 311 307 304
325 148 185 212 155 173 27 15 339 162 188 172 149 161 156 157 152 140 151 142 138 153 161 141 151 141 150 145 146 141 132 142 143 358 336 327 326 322 319 316 311 308 307 308
98 127 204 200 99 93 1 317 299 144 138 158 150 135 156 173 109 136 149 150 156 162 159 160 153 153 149 151 154 152 157 236 329 339 331 326 322 315 313 313 313 316 319 321
250 219 102 103 108 86 357 337 144 82 127 136 134 134 118 120 124 139 146 148 148 145 147 149 149 152 149 151 163 178 269 331 330 321 317 318 314 316 318 321 330 335 337 344
10 14 71 33 77 351 32 28 72 119 117 120 117 124 130 120 119 131 128 129 135 140 143 145 148 148 153 160 178 281 311 315 315 316 318 317 320 324 329 342 343 351 356 360
79 16 71 138 33 53 56 63 77 92 99 110 125 129 130 127 128 125 129 131 133 137 138 140 144 153 176 258 296 308 313 314 317 319 316 322 331 344 350 350 359 1 1 4
357 346 80 89 119 84 45 52 75 89 104 110 112 115 116 122 125 128 128 131 129 133 139 148 169 242 286 301 308 311 311 315 316 314 323 339 347 347 352 353 5 355 347 356
350 24 42 85 73 98 68 66 96 102 98 106 123 111 112 129 125 126 126 131 137 148 171 208 266 290 295 298 304 308 311 313 313 330 357 355 350 351 360 1 355 353 337 340